This is the latest recevied weather packets stored in our database for station/object KB2FWP. If no packets are shown the sender has not sent any weather packets the latest 10 day(s).
| Time | Temp. | Humidity | Pressure | Rain* | Wind** | Luminosity | Snow |
|---|---|---|---|---|---|---|---|
| 1777792538 | 8.89° C | 58% | 1011.1 hPa | 0 mm | - | - | - |
| 1777791634 | 8.89° C | 57% | 1010.9 hPa | 0 mm | - | - | - |
| 1777790730 | 9.44° C | 56% | 1011 hPa | 0 mm | - | - | - |
| 1777789828 | 9.44° C | 58% | 1011 hPa | 0 mm | - | - | - |
| 1777788927 | 9.44° C | 59% | 1011.2 hPa | 0 mm | - | - | - |
| 1777788042 | 10° C | 60% | 1011.2 hPa | 0 mm | - | - | - |
| 1777787130 | 10° C | 58% | 1011.4 hPa | 0 mm | - | - | - |
| 1777786221 | 10° C | 59% | 1011.2 hPa | 0 mm | - | - | - |
| 1777785317 | 10° C | 60% | 1011.8 hPa | 0 mm | - | - | - |
| 1777784415 | 10° C | 61% | 1012 hPa | 0 mm | - | - | - |
| 1777783514 | 10.56° C | 62% | 1012 hPa | 0 mm | - | - | - |
| 1777782613 | 10.56° C | 62% | 1011.9 hPa | 0 mm | - | - | - |
| 1777781714 | 10.56° C | 62% | 1012 hPa | 0 mm | - | - | - |
| 1777780808 | 10.56° C | 62% | 1012 hPa | 0 mm | - | - | - |
| 1777779908 | 10.56° C | 64% | 1011.9 hPa | 0 mm | - | - | - |
| 1777779007 | 10.56° C | 64% | 1011.7 hPa | 0 mm | - | - | - |
| 1777778107 | 10.56° C | 66% | 1011.7 hPa | 0 mm | - | - | - |
| 1777777206 | 10.56° C | 67% | 1011.8 hPa | 0 mm | - | - | - |
| 1777776305 | 10.56° C | 68% | 1011.8 hPa | 0 mm | - | - | - |
| 1777775404 | 10° C | 78% | 1011.9 hPa | 0 mm | - | - | - |
| 1777774502 | 10° C | 84% | 1012.1 hPa | 0 mm | - | - | - |
| 1777773602 | 10° C | 85% | 1012.3 hPa | 0 mm | - | - | - |
| 1777772785 | 10° C | 86% | 1012.3 hPa | 0 mm | - | - | - |
| 1777772702 | 10° C | 86% | 1012.2 hPa | 0 mm | - | - | - |
| 1777771860 | 10.56° C | 86% | 1012.2 hPa | 0 mm | - | - | - |
* Rain latest hour (hover to see other rain measurements)
** Current wind speed in m/s (hover to see current wind gust speed)